This is the latest recevied weather packets stored in our database for station/object YO6RK-13. If no packets are shown the sender has not sent any weather packets the latest 10 day(s).
| Time | Temp. | Humidity | Pressure | Rain* | Wind** | Luminosity | Snow |
|---|---|---|---|---|---|---|---|
| 1777551034 | 5.56° C | 68% | 1021.2 hPa | 0 mm | - | - | - |
| 1777550724 | 5.56° C | 72% | 1021.3 hPa | 0 mm | - | - | - |
| 1777547412 | 5° C | 80% | 1021.3 hPa | 0.51 mm | - | - | - |
| 1777545919 | 5° C | 84% | 1021.2 hPa | 0.51 mm | - | - | - |
| 1777545032 | 5° C | 83% | 1021.2 hPa | 0.51 mm | - | - | - |
| 1777542329 | 5.56° C | 83% | 1021.2 hPa | 0 mm | - | - | - |
| 1777541417 | 5.56° C | 83% | 1021.2 hPa | 0 mm | - | - | - |
| 1777541121 | 5° C | 82% | 1021.1 hPa | 0.51 mm | - | - | - |
| 1777539632 | 4.44° C | 84% | 1021 hPa | 0.51 mm | - | - | - |
| 1777538729 | 4.44° C | 83% | 1021.1 hPa | 0.51 mm | - | - | - |
| 1777538436 | 4.44° C | 83% | 1021.1 hPa | 0.51 mm | - | - | - |
| 1777537210 | 4.44° C | 84% | 1021.1 hPa | 0 mm | - | - | - |
| 1777536330 | 4.44° C | 85% | 1020.9 hPa | 0 mm | - | - | - |
| 1777536031 | 4.44° C | 85% | 1020.9 hPa | 0 mm | - | - | - |
| 1777535128 | 4.44° C | 85% | 1021 hPa | 0 mm | - | - | - |
| 1777533634 | 4.44° C | 84% | 1020.8 hPa | 0 mm | - | - | - |
| 1777533033 | 3.89° C | 82% | 1020.7 hPa | 0 mm | - | - | - |
| 1777527053 | 3.33° C | 84% | 1020.5 hPa | 0 mm | - | - | - |
| 1777525517 | 3.33° C | 85% | 1020.5 hPa | 0 mm | - | - | - |
| 1777524631 | 2.78° C | 85% | 1020.5 hPa | 0 mm | - | - | - |
| 1777522526 | 2.78° C | 86% | 1020.3 hPa | 0 mm | - | - | - |
| 1777521641 | 2.78° C | 86% | 1020.1 hPa | 0 mm | - | - | - |
| 1777519224 | 2.78° C | 86% | 1019.6 hPa | 0 mm | - | - | - |
| 1777518915 | 2.78° C | 86% | 1019.7 hPa | 0 mm | - | - | - |
| 1777518339 | 2.78° C | 87% | 1019.6 hPa | 0 mm | - | - | - |
* Rain latest hour (hover to see other rain measurements)
** Current wind speed in m/s (hover to see current wind gust speed)